"startDT [UTC]","vpos","CH4 [ppm]","stdev(CH4) [ppm]","CO2 [ppm]","stdev(CO2) [ppm]","H2O [ppm]","stdev(H2O)","p_LGR [torr]","T_LGR [C]","mt1_LGR [us]","mt2_LGR [us]","T_ECpre [C]","T_EC1 [C]","T_EC2 [C]","p_inlet [hPa]","p_in [hPa]","p_out [hPa]","T_inlet [C]","RH_inlet [%]","dwpt_inlet [C]","T_vent [C]","RH_vent [%]","dwpt_vent [C]","flow_vent [l min-1]","flow_inlet [l min-1]","dwpt_sample [C]","T_room [C]"
2012-01-23 00:00:00,0.0,1.9123,0.0008,402.99,0.22,2.9,9.7,138.13,28.60,24.61,36.32,0.04,-272.74,-272.74,-51,555,-941,23.7,1.8,-29.3,23.7,1.9,-29.0,5.73,2.37,-28.6,26.6
2012-01-23 00:01:00,0.0,1.9119,0.0008,402.81,0.21,1.6,9.8,138.13,28.59,24.60,36.32,0.04,-272.74,-272.74,-51,555,-941,23.7,1.8,-29.3,23.7,1.9,-29.0,5.73,2.37,-28.7,26.6
2012-01-23 00:02:00,0.0,1.9116,0.0008,402.76,0.21,2.5,8.1,138.13,28.58,24.61,36.32,0.04,-272.74,-272.74,-51,555,-941,23.7,1.9,-29.2,23.7,1.9,-28.9,5.73,2.38,-28.7,26.7
2012-01-23 00:03:00,0.0,1.9125,0.0013,402.89,0.25,2.2,10.1,138.13,28.58,24.61,36.33,0.04,-272.74,-272.73,-51,554,-941,23.7,1.9,-29.1,23.7,1.9,-28.8,5.73,2.44,-28.6,27.2
2012-01-23 00:04:00,0.0,1.9128,0.0008,403.07,0.23,7.2,14.6,138.12,28.58,24.60,36.33,0.04,-272.73,-272.74,-51,554,-941,23.7,1.9,-29.1,23.7,1.9,-28.8,5.73,2.48,-28.5,27.5
2012-01-23 00:05:00,0.0,1.9131,0.0010,403.21,0.19,12.5,18.2,138.12,28.59,24.60,36.33,0.04,-272.74,-272.74,-51,554,-941,23.8,1.9,-29.1,23.7,2.0,-28.7,5.73,2.38,-28.4,27.8
2012-01-23 00:06:00,0.0,1.9135,0.0009,403.31,0.25,17.2,23.0,138.11,28.60,24.60,36.33,0.04,-272.74,-272.74,-51,555,-941,23.8,1.9,-29.0,23.8,1.9,-28.7,5.73,2.29,-28.3,28.0
2012-01-23 00:07:00,0.0,1.9138,0.0008,403.26,0.24,28.1,23.6,138.10,28.62,24.61,36.33,0.04,-272.74,-272.74,-51,555,-941,23.9,1.9,-29.1,23.8,1.9,-28.8,5.73,2.47,-28.2,28.2
2012-01-23 00:08:00,0.0,1.9133,0.0011,403.29,0.28,33.5,28.4,138.10,28.65,24.61,36.33,0.04,-272.74,-272.74,-51,554,-941,23.9,1.9,-29.1,23.9,1.9,-28.8,5.73,2.44,-28.1,28.4
2012-01-23 00:09:00,0.0,1.9140,0.0009,403.44,0.24,40.4,28.1,138.09,28.67,24.61,36.33,0.04,-272.74,-272.74,-52,554,-941,23.9,1.9,-28.8,23.9,2.0,-28.4,5.73,2.29,-28.0,28.5
2012-01-23 00:10:00,0.0,1.9142,0.0011,403.44,0.22,44.3,29.1,138.09,28.70,24.61,36.33,0.04,-272.74,-272.74,-51,555,-941,24.0,1.8,-29.2,24.0,1.9,-28.8,5.73,2.50,-27.9,28.6
2012-01-23 00:11:00,0.0,1.9149,0.0009,403.58,0.19,53.3,28.0,138.08,28.73,24.61,36.33,0.04,-272.74,-272.74,-51,555,-941,24.0,1.8,-29.3,24.0,1.9,-29.0,5.73,2.37,-27.8,28.7
2012-01-23 00:12:00,0.0,1.9147,0.0006,403.44,0.27,48.2,30.8,138.08,28.76,24.61,36.34,0.04,-272.74,-272.74,-51,555,-941,24.1,1.8,-29.2,24.0,1.9,-28.9,5.73,2.32,-27.7,28.3
2012-01-23 00:13:00,0.0,1.9151,0.0008,403.46,0.21,51.3,29.6,138.08,28.79,24.61,36.34,0.04,-272.74,-272.74,-51,555,-941,24.1,1.8,-29.3,24.1,1.9,-28.9,5.73,2.40,-27.7,27.9
2012-01-23 00:14:00,0.0,1.9150,0.0009,403.51,0.24,40.9,27.3,138.09,28.80,24.61,36.33,0.04,-272.74,-272.73,-51,556,-941,24.1,1.8,-29.2,24.1,1.9,-28.9,5.73,2.41,-27.8,27.8
2012-01-23 00:15:00,0.0,1.9149,0.0008,403.51,0.21,49.2,27.6,138.09,28.82,24.61,36.34,0.04,-272.74,-272.74,-51,556,-942,24.1,1.8,-29.2,24.1,1.9,-29.0,5.73,2.40,-27.8,27.5
2012-01-23 00:16:00,0.0,1.9146,0.0008,403.49,0.23,44.4,28.6,138.10,28.82,24.61,36.33,0.04,-272.74,-272.74,-51,556,-941,24.1,1.8,-29.2,24.1,1.9,-28.9,5.73,2.39,-27.9,27.4
2012-01-23 00:17:00,0.0,1.9151,0.0010,403.57,0.17,43.2,26.7,138.10,28.83,24.61,36.33,0.04,-272.74,-272.74,-51,556,-941,24.1,1.8,-29.2,24.1,1.9,-28.8,5.73,2.40,-28.0,27.4
2012-01-23 00:18:00,0.0,1.9152,0.0009,403.67,0.24,35.9,27.0,138.10,28.83,24.61,36.34,0.04,-272.74,-272.74,-51,556,-942,24.1,1.8,-29.2,24.1,1.9,-28.9,5.73,2.40,-28.0,27.3
2012-01-23 00:19:00,0.0,1.9150,0.0008,403.65,0.19,34.5,22.8,138.11,28.83,24.61,36.33,0.04,-272.74,-272.74,-52,556,-941,24.1,1.8,-29.3,24.0,1.9,-29.0,5.73,2.40,-28.1,27.3
2012-01-23 00:20:00,0.0,1.9153,0.0009,403.68,0.23,26.1,25.4,138.11,28.82,24.61,36.33,0.04,-272.73,-272.74,-52,556,-942,24.1,1.8,-29.4,24.0,1.9,-29.0,5.73,2.41,-28.1,27.2
2012-01-23 00:21:00,0.0,1.9149,0.0009,403.66,0.24,24.7,26.8,138.11,28.82,24.61,36.33,0.04,-272.74,-272.73,-51,556,-941,24.1,1.8,-29.4,24.0,1.9,-29.0,5.73,2.41,-28.2,27.1
2012-01-23 00:22:00,0.0,1.9145,0.0009,403.60,0.24,19.3,21.4,138.11,28.81,24.61,36.33,0.04,-272.74,-272.74,-52,556,-942,24.1,1.8,-29.4,24.0,1.9,-29.0,5.73,2.41,-28.2,27.0
2012-01-23 00:23:00,0.0,1.9149,0.0009,403.61,0.22,18.3,23.8,138.12,28.80,24.61,36.33,0.04,-272.74,-272.74,-51,556,-941,24.1,1.8,-29.3,24.0,1.9,-29.0,5.73,2.42,-28.3,26.9
2012-01-23 00:24:00,0.0,1.9145,0.0009,403.60,0.22,14.7,21.0,138.12,28.80,24.61,36.33,0.04,-272.74,-272.74,-51,556,-942,24.0,1.8,-29.2,24.0,1.9,-29.0,5.73,2.42,-28.3,27.0
2012-01-23 00:25:00,0.0,1.9150,0.0011,403.53,0.20,16.4,21.1,138.12,28.79,24.60,36.33,0.04,-272.74,-272.74,-51,556,-942,24.0,1.8,-29.3,23.9,1.9,-29.0,5.73,2.42,-28.3,26.9
2012-01-23 00:26:00,0.0,1.9146,0.0009,403.56,0.20,17.0,21.6,138.12,28.78,24.61,36.33,0.04,-272.74,-272.74,-51,556,-942,24.0,1.8,-29.3,23.9,1.9,-29.0,5.73,2.43,-28.4,26.9
2012-01-23 00:27:00,0.0,1.9142,0.0007,403.54,0.19,12.9,19.5,138.12,28.77,24.61,36.33,0.04,-272.74,-272.74,-51,556,-942,24.0,1.8,-29.3,23.9,1.9,-29.0,5.73,2.43,-28.4,26.9
2012-01-23 00:28:00,0.0,1.9149,0.0008,403.61,0.24,10.3,15.9,138.12,28.76,24.61,36.33,0.04,-272.74,-272.74,-51,556,-942,24.0,1.8,-29.3,23.9,1.9,-29.0,5.73,2.42,-28.4,26.9
2012-01-23 00:29:00,0.0,1.9159,0.0008,403.64,0.22,10.9,16.8,138.12,28.75,24.61,36.33,0.04,-272.74,-272.74,-52,556,-942,24.0,1.8,-29.4,23.9,1.9,-29.0,5.73,2.41,-28.5,26.8
2012-01-23 00:30:00,0.0,1.9155,0.0009,403.67,0.20,10.3,22.4,138.12,28.74,24.61,36.32,0.04,-272.73,-272.74,-52,556,-942,23.9,1.8,-29.5,23.9,1.8,-29.2,5.73,2.41,-28.5,26.9
2012-01-23 00:31:00,0.0,1.9150,0.0009,403.55,0.26,7.7,15.8,138.13,28.74,24.61,36.33,0.04,-272.74,-272.74,-52,556,-942,23.9,1.8,-29.5,23.9,1.8,-29.2,5.73,2.40,-28.5,26.8
2012-01-23 00:32:00,0.0,1.9149,0.0010,403.49,0.23,3.7,12.1,138.13,28.73,24.61,36.33,0.04,-272.74,-272.74,-52,556,-941,23.9,1.8,-29.5,23.8,1.8,-29.2,5.73,2.39,-28.5,26.8
2012-01-23 00:33:00,0.0,1.9151,0.0008,403.48,0.23,7.1,14.9,138.13,28.72,24.61,36.33,0.04,-272.74,-272.73,-52,556,-942,23.9,1.8,-29.5,23.8,1.8,-29.2,5.73,2.39,-28.5,26.8
2012-01-23 00:34:00,0.0,1.9152,0.0011,403.41,0.21,6.5,12.8,138.13,28.71,24.61,36.33,0.04,-272.73,-272.74,-52,555,-942,23.9,1.8,-29.5,23.8,1.8,-29.2,5.73,2.38,-28.6,26.8
2012-01-23 00:35:00,0.0,1.9155,0.0010,403.59,0.26,5.2,12.9,138.13,28.70,24.61,36.33,0.04,-272.74,-272.74,-52,555,-941,23.9,1.8,-29.6,23.8,1.8,-29.3,5.73,2.37,-28.6,26.7
2012-01-23 00:36:00,0.0,1.9162,0.0009,403.75,0.26,5.2,14.8,138.13,28.69,24.61,36.33,0.04,-272.74,-272.74,-52,555,-941,23.9,1.8,-29.7,23.8,1.8,-29.3,5.73,2.37,-28.6,26.6
2012-01-23 00:37:00,0.0,1.9164,0.0008,403.73,0.24,2.3,9.8,138.13,28.68,24.60,36.33,0.04,-272.73,-272.73,-52,556,-942,23.9,1.7,-29.8,23.8,1.8,-29.5,5.73,2.37,-28.6,26.6
2012-01-23 00:38:00,0.0,1.9160,0.0009,403.63,0.20,3.7,12.2,138.13,28.67,24.61,36.32,0.04,-272.74,-272.74,-52,556,-942,23.8,1.7,-29.9,23.7,1.8,-29.6,5.73,2.37,-28.6,26.5
2012-01-23 00:39:00,0.0,1.9162,0.0010,403.66,0.27,1.7,8.1,138.13,28.66,24.61,36.32,0.04,-272.74,-272.73,-52,555,-941,23.8,1.7,-30.0,23.7,1.8,-29.7,5.73,2.37,-28.7,26.6
2012-01-23 00:40:00,1.0,1.8905,0.0171,387.33,11.31,4.7,14.6,138.13,28.65,24.61,36.32,0.04,-272.74,-272.74,-52,502,-941,23.8,1.7,-30.0,23.7,1.8,-29.7,5.73,2.35,-28.7,26.6
2012-01-23 00:41:00,1.0,1.8705,0.0008,374.41,0.21,3.2,11.3,138.13,28.65,24.61,36.33,0.04,-272.73,-272.74,-51,501,-941,23.8,1.7,-29.9,23.7,1.8,-29.5,5.73,2.39,-28.7,26.6
2012-01-23 00:42:00,1.0,1.8707,0.0010,374.30,0.19,5.9,13.4,138.13,28.64,24.60,36.34,0.04,-272.74,-272.74,-51,501,-941,23.8,1.7,-29.9,23.7,1.8,-29.5,5.73,2.40,-28.7,26.6
2012-01-23 00:43:00,1.0,1.8706,0.0012,374.31,0.26,6.5,15.7,138.13,28.63,24.60,36.34,0.04,-272.74,-272.74,-51,501,-941,23.8,1.7,-29.8,23.7,1.8,-29.5,5.73,2.40,-28.7,26.6
2012-01-23 00:44:00,1.0,1.8702,0.0009,374.24,0.17,3.1,10.4,138.13,28.62,24.61,36.34,0.04,-272.74,-272.74,-51,501,-941,23.8,1.8,-29.8,23.7,1.8,-29.5,5.73,2.41,-28.7,26.5
2012-01-23 00:45:00,0.0,1.8947,0.0168,390.41,11.19,2.3,8.3,138.13,28.61,24.61,36.33,0.04,-272.74,-272.74,-52,555,-941,23.7,1.8,-29.7,23.7,1.8,-29.3,5.73,2.45,-28.7,26.5
2012-01-23 00:46:00,0.0,1.9138,0.0010,403.10,0.26,-0.1,4.1,138.13,28.60,24.61,36.32,0.04,-272.74,-272.74,-52,555,-942,23.7,1.8,-29.6,23.7,1.8,-29.3,5.73,2.45,-28.7,26.6
2012-01-23 00:47:00,0.0,1.9135,0.0008,403.01,0.24,1.2,6.8,138.14,28.59,24.61,36.33,0.04,-272.74,-272.74,-52,555,-941,23.7,1.8,-29.5,23.7,1.9,-29.2,5.73,2.45,-28.7,26.6
2012-01-23 00:48:00,0.0,1.9135,0.0009,403.13,0.22,0.8,5.0,138.14,28.59,24.61,36.32,0.04,-272.74,-272.74,-52,555,-941,23.7,1.8,-29.4,23.6,1.9,-29.2,5.73,2.42,-28.7,26.7
2012-01-23 00:49:00,0.0,1.9141,0.0009,403.15,0.22,1.9,7.7,138.13,28.58,24.61,36.33,0.04,-272.74,-272.74,-52,555,-941,23.7,1.8,-29.4,23.7,1.9,-29.1,5.73,2.36,-28.7,27.2
2012-01-23 00:50:00,0.0,1.9157,0.0010,403.59,0.24,3.9,10.5,138.12,28.58,24.60,36.33,0.04,-272.74,-272.74,-52,554,-941,23.8,1.8,-29.5,23.7,1.9,-29.2,5.73,2.34,-28.6,27.6
2012-01-23 00:51:00,0.0,1.9157,0.0008,403.62,0.23,10.6,18.7,138.12,28.59,24.61,36.33,0.04,-272.74,-272.74,-52,555,-941,23.8,1.8,-29.6,23.8,1.8,-29.3,5.73,2.45,-28.5,27.8
2012-01-23 00:52:00,0.0,1.9146,0.0012,403.45,0.26,14.2,21.0,138.11,28.61,24.60,36.33,0.04,-272.74,-272.74,-52,555,-941,23.8,1.8,-29.7,23.8,1.8,-29.2,5.73,2.49,-28.4,28.0
2012-01-23 00:53:00,0.0,1.9141,0.0010,403.35,0.21,22.4,21.9,138.10,28.63,24.61,36.33,0.04,-272.74,-272.74,-51,555,-941,23.9,1.8,-29.6,23.9,1.8,-29.2,5.73,2.32,-28.3,28.2
2012-01-23 00:54:00,0.0,1.9140,0.0007,403.30,0.21,30.3,26.4,138.10,28.65,24.61,36.33,0.04,-272.73,-272.73,-51,555,-941,23.9,1.8,-29.4,23.9,1.9,-29.0,5.73,2.38,-28.2,28.3
2012-01-23 00:55:00,0.0,1.9143,0.0010,403.39,0.17,47.0,30.8,138.09,28.67,24.61,36.33,0.04,-272.74,-272.74,-52,554,-941,24.0,1.8,-29.3,24.0,1.9,-29.0,5.73,2.51,-28.1,28.5
2012-01-23 00:56:00,0.0,1.9152,0.0009,403.48,0.20,43.1,29.2,138.09,28.70,24.61,36.34,0.04,-272.74,-272.74,-51,555,-941,24.0,1.8,-29.4,24.0,1.9,-29.0,5.73,2.30,-28.0,28.6
2012-01-23 00:57:00,0.0,1.9151,0.0007,403.51,0.23,49.9,30.8,138.08,28.73,24.61,36.33,0.04,-272.74,-272.74,-51,555,-941,24.1,1.8,-29.2,24.0,1.9,-29.0,5.73,2.41,-27.9,28.6
2012-01-23 00:58:00,0.0,1.9147,0.0008,403.30,0.23,61.3,26.8,138.08,28.76,24.61,36.34,0.04,-272.73,-272.74,-51,555,-941,24.1,1.8,-29.2,24.1,1.9,-28.8,5.73,2.48,-27.9,28.1
2012-01-23 00:59:00,0.0,1.9153,0.0008,403.43,0.21,44.3,28.6,138.09,28.78,24.61,36.34,0.04,-272.74,-272.74,-51,556,-941,24.1,1.8,-29.2,24.1,1.9,-28.8,5.73,2.44,-27.9,27.7
2012-01-23 01:00:00,0.0,1.9149,0.0008,403.30,0.24,45.1,30.6,138.09,28.80,24.61,36.34,0.04,-272.74,-272.74,-51,556,-941,24.1,1.8,-29.1,24.1,1.9,-28.7,5.73,2.42,-28.0,27.5
2012-01-23 01:01:00,0.0,1.9154,0.0010,403.49,0.23,34.7,29.5,138.10,28.80,24.61,36.34,0.04,-272.74,-272.74,-51,556,-941,24.1,1.8,-29.1,24.1,1.9,-28.8,5.73,2.41,-28.1,27.3
2012-01-23 01:02:00,0.0,1.9159,0.0009,403.66,0.20,36.0,30.6,138.10,28.81,24.61,36.33,0.04,-272.74,-272.74,-51,556,-942,24.1,1.8,-29.2,24.0,1.9,-28.9,5.73,2.40,-28.2,27.2
2012-01-23 01:03:00,0.0,1.9155,0.0010,403.67,0.21,30.1,24.0,138.10,28.81,24.61,36.33,0.04,-272.74,-272.74,-51,556,-941,24.1,1.8,-29.2,24.0,1.9,-29.0,5.73,2.38,-28.3,27.2
2012-01-23 01:04:00,0.0,1.9154,0.0007,403.64,0.19,19.6,24.1,138.11,28.81,24.61,36.33,0.04,-272.74,-272.74,-51,556,-942,24.1,1.8,-29.3,24.0,1.9,-28.9,5.73,2.38,-28.3,27.1
2012-01-23 01:05:00,0.0,1.9158,0.0008,403.67,0.20,22.7,24.5,138.11,28.81,24.61,36.33,0.04,-272.74,-272.74,-51,556,-942,24.1,1.8,-29.4,24.0,1.9,-29.0,5.73,2.38,-28.4,27.1
2012-01-23 01:06:00,0.0,1.9155,0.0009,403.72,0.19,11.3,19.7,138.11,28.80,24.61,36.33,0.04,-272.74,-272.74,-51,556,-942,24.1,1.8,-29.4,24.0,1.9,-29.0,5.73,2.38,-28.5,27.0
2012-01-23 01:07:00,0.0,1.9149,0.0010,403.59,0.28,14.3,22.5,138.11,28.79,24.61,36.33,0.04,-272.74,-272.73,-51,556,-942,24.0,1.8,-29.3,23.9,1.9,-29.0,5.73,2.39,-28.5,26.9
2012-01-23 01:08:00,0.0,1.9161,0.0007,403.79,0.19,8.3,14.9,138.12,28.79,24.61,36.33,0.04,-272.73,-272.74,-52,556,-942,24.0,1.8,-29.3,23.9,1.9,-29.0,5.73,2.40,-28.6,27.0
2012-01-23 01:09:00,0.0,1.9158,0.0009,403.85,0.22,6.2,10.7,138.12,28.77,24.61,36.33,0.04,-272.74,-272.74,-52,556,-942,24.0,1.8,-29.4,23.9,1.9,-29.1,5.73,2.41,-28.6,27.0
2012-01-23 01:10:00,0.0,1.9154,0.0010,403.66,0.25,4.2,11.4,138.12,28.76,24.61,36.33,0.04,-272.74,-272.74,-52,556,-942,24.0,1.8,-29.5,23.9,1.8,-29.2,5.73,2.42,-28.7,26.8
2012-01-23 01:11:00,0.0,1.9163,0.0011,403.84,0.23,7.1,15.5,138.12,28.75,24.61,36.33,0.04,-272.74,-272.74,-53,556,-942,24.0,1.8,-29.6,23.9,1.8,-29.2,5.73,2.43,-28.7,26.8
2012-01-23 01:12:00,0.0,1.9168,0.0008,403.89,0.23,3.4,11.7,138.12,28.74,24.61,36.33,0.04,-272.74,-272.74,-53,556,-942,23.9,1.8,-29.7,23.8,1.8,-29.4,5.73,2.44,-28.8,26.6
2012-01-23 01:13:00,0.0,1.9167,0.0009,403.91,0.20,3.9,14.0,138.12,28.73,24.61,36.33,0.04,-272.74,-272.74,-52,556,-941,23.9,1.7,-29.9,23.8,1.8,-29.5,5.73,2.44,-28.8,26.6
2012-01-23 01:14:00,0.0,1.9163,0.0009,403.63,0.17,3.5,9.4,138.13,28.72,24.61,36.33,0.04,-272.74,-272.73,-52,556,-942,23.9,1.7,-29.9,23.8,1.8,-29.6,5.73,2.45,-28.8,26.6
2012-01-23 01:15:00,0.0,1.9146,0.0009,403.38,0.25,1.8,11.2,138.13,28.71,24.61,36.33,0.04,-272.74,-272.74,-52,556,-941,23.9,1.7,-29.8,23.8,1.8,-29.5,5.73,2.43,-28.9,26.6
2012-01-23 01:16:00,0.0,1.9150,0.0012,403.35,0.29,2.2,8.4,138.13,28.70,24.61,36.33,0.04,-272.74,-272.74,-52,556,-942,23.9,1.8,-29.7,23.8,1.8,-29.4,5.73,2.42,-28.9,26.6
2012-01-23 01:17:00,0.0,1.9146,0.0009,403.30,0.26,1.3,7.1,138.13,28.69,24.61,36.33,0.04,-272.74,-272.74,-52,556,-942,23.9,1.8,-29.7,23.7,1.8,-29.5,5.73,2.39,-28.9,26.5
2012-01-23 01:18:00,0.0,1.9151,0.0010,403.29,0.20,0.5,4.9,138.13,28.68,24.61,36.32,0.04,-272.74,-272.73,-52,556,-942,23.8,1.8,-29.8,23.7,1.8,-29.4,5.73,2.37,-28.9,26.5
2012-01-23 01:19:00,0.0,1.9156,0.0012,403.56,0.29,1.3,6.7,138.13,28.67,24.61,36.32,0.04,-272.74,-272.74,-52,556,-942,23.8,1.8,-29.7,23.7,1.8,-29.4,5.73,2.36,-29.0,26.5
2012-01-23 01:20:00,0.0,1.9156,0.0010,403.44,0.23,0.6,6.5,138.13,28.65,24.61,36.33,0.04,-272.74,-272.74,-52,555,-942,23.8,1.7,-29.8,23.7,1.8,-29.5,5.73,2.36,-29.0,26.5
2012-01-23 01:21:00,0.0,1.9148,0.0009,403.32,0.20,0.9,8.4,138.13,28.64,24.61,36.33,0.04,-272.73,-272.73,-52,555,-942,23.8,1.7,-29.9,23.7,1.8,-29.5,5.73,2.38,-29.0,26.5
2012-01-23 01:22:00,0.0,1.9141,0.0008,403.27,0.22,-0.3,3.6,138.14,28.63,24.61,36.32,0.04,-272.74,-272.73,-51,555,-942,23.7,1.7,-29.9,23.7,1.8,-29.5,5.73,2.39,-29.0,26.5
2012-01-23 01:23:00,0.0,1.9136,0.0008,403.10,0.20,0.1,4.5,138.14,28.62,24.61,36.32,0.04,-272.74,-272.74,-51,555,-941,23.7,1.8,-29.8,23.7,1.8,-29.5,5.73,2.42,-29.0,26.5
2012-01-23 01:24:00,0.0,1.9140,0.0010,403.19,0.25,0.1,3.4,138.14,28.61,24.60,36.33,0.04,-272.73,-272.74,-51,555,-941,23.7,1.8,-29.6,23.7,1.8,-29.3,5.73,2.44,-29.0,26.4
2012-01-23 01:25:00,0.0,1.9135,0.0009,403.13,0.23,-0.5,3.8,138.14,28.60,24.61,36.32,0.04,-272.73,-272.73,-51,555,-942,23.7,1.8,-29.6,23.6,1.8,-29.3,5.73,2.45,-29.1,26.5
2012-01-23 01:26:00,0.0,1.9129,0.0009,403.01,0.24,0.7,7.1,138.14,28.59,24.61,36.33,0.04,-272.74,-272.74,-52,555,-942,23.7,1.8,-29.5,23.6,1.9,-29.2,5.73,2.45,-29.1,26.4
2012-01-23 01:27:00,0.0,1.9136,0.0009,403.18,0.24,-0.3,3.3,138.14,28.58,24.61,36.32,0.04,-272.74,-272.74,-52,554,-942,23.7,1.8,-29.5,23.6,1.9,-29.2,5.73,2.45,-29.1,26.3
2012-01-23 01:28:00,0.0,1.9146,0.0009,403.38,0.23,0.1,4.4,138.14,28.57,24.60,36.32,0.04,-272.73,-272.73,-51,554,-942,23.6,1.8,-29.5,23.6,1.9,-29.2,5.73,2.39,-29.1,26.6
2012-01-23 01:29:00,0.0,1.9148,0.0008,403.48,0.24,1.6,8.0,138.13,28.57,24.61,36.33,0.04,-272.74,-272.74,-51,554,-942,23.6,1.8,-29.6,23.6,1.8,-29.4,5.73,2.35,-29.0,27.1
2012-01-23 01:30:00,0.0,1.9156,0.0009,403.65,0.18,5.2,13.0,138.12,28.57,24.61,36.32,0.04,-272.74,-272.74,-51,554,-941,23.7,1.8,-29.7,23.6,1.8,-29.4,5.73,2.34,-28.9,27.5
2012-01-23 01:31:00,0.0,1.9156,0.0009,403.72,0.22,9.8,16.6,138.12,28.58,24.61,36.32,0.04,-272.74,-272.73,-51,554,-941,23.7,1.8,-29.8,23.7,1.8,-29.5,5.73,2.46,-28.7,27.7
2012-01-23 01:32:00,0.0,1.9162,0.0008,403.93,0.25,10.9,18.6,138.11,28.60,24.61,36.33,0.04,-272.74,-272.74,-52,554,-941,23.7,1.7,-29.8,23.7,1.8,-29.5,5.73,2.49,-28.7,27.9
2012-01-23 01:33:00,0.0,1.9156,0.0009,403.88,0.21,14.1,19.8,138.10,28.62,24.61,36.33,0.04,-272.74,-272.74,-52,554,-941,23.8,1.7,-29.9,23.8,1.8,-29.5,5.73,2.32,-28.6,28.1
2012-01-23 01:34:00,0.0,1.9157,0.0011,403.85,0.24,22.8,24.3,138.10,28.64,24.61,36.32,0.04,-272.74,-272.74,-51,554,-941,23.8,1.7,-30.0,23.8,1.8,-29.5,5.73,2.38,-28.5,28.2
2012-01-23 01:35:00,0.0,1.9163,0.0008,403.75,0.23,27.9,28.5,138.09,28.66,24.61,36.34,0.04,-272.74,-272.74,-51,554,-941,23.9,1.7,-30.0,23.8,1.8,-29.7,5.73,2.51,-28.4,28.4
2012-01-23 01:36:00,0.0,1.9162,0.0008,403.80,0.25,33.4,27.0,138.09,28.69,24.61,36.33,0.04,-272.74,-272.74,-52,554,-941,23.9,1.7,-30.0,23.9,1.8,-29.7,5.73,2.32,-28.4,28.5
2012-01-23 01:37:00,0.0,1.9162,0.0010,403.69,0.24,42.8,27.0,138.08,28.72,24.61,36.33,0.04,-272.74,-272.74,-51,554,-941,23.9,1.7,-30.1,23.9,1.8,-29.7,5.73,2.37,-28.2,28.3
2012-01-23 01:38:00,0.0,1.9163,0.0010,403.68,0.24,39.1,29.5,138.09,28.74,24.61,36.34,0.04,-272.73,-272.74,-51,555,-942,24.0,1.7,-29.9,23.9,1.8,-29.6,5.73,2.45,-28.2,27.9
2012-01-23 01:39:00,0.0,1.9164,0.0010,403.82,0.25,39.7,34.1,138.09,28.76,24.61,36.33,0.04,-272.74,-272.74,-51,555,-942,24.0,1.7,-30.0,23.9,1.8,-29.7,5.73,2.42,-28.2,27.5
2012-01-23 01:40:00,0.0,1.9168,0.0008,403.94,0.23,28.5,27.7,138.09,28.77,24.61,36.33,0.04,-272.74,-272.74,-51,555,-942,24.0,1.7,-30.0,23.9,1.8,-29.6,5.73,2.40,-28.3,27.5
2012-01-23 01:41:00,0.0,1.9162,0.0008,403.82,0.23,26.3,24.5,138.10,28.78,24.61,36.34,0.04,-272.74,-272.74,-51,555,-942,24.0,1.7,-30.0,23.9,1.8,-29.7,5.73,2.39,-28.3,27.3
2012-01-23 01:42:00,0.0,1.9168,0.0010,403.96,0.22,22.1,25.0,138.10,28.78,24.61,36.33,0.04,-272.74,-272.74,-51,555,-942,24.0,1.7,-29.9,23.9,1.7,-29.7,5.73,2.39,-28.4,27.2
2012-01-23 01:43:00,0.0,1.9165,0.0008,404.05,0.20,25.9,28.9,138.11,28.78,24.61,36.33,0.04,-272.74,-272.74,-51,556,-942,24.0,1.7,-30.2,23.9,1.8,-29.7,5.73,2.41,-28.5,27.1
2012-01-23 01:44:00,0.0,1.9165,0.0008,403.89,0.19,16.4,18.0,138.11,28.78,24.61,36.34,0.04,-272.74,-272.74,-51,556,-943,23.9,1.7,-30.1,23.9,1.8,-29.7,5.73,2.43,-28.5,27.0
2012-01-23 01:45:00,0.0,1.9170,0.0008,403.97,0.21,14.5,17.5,138.11,28.77,24.61,36.33,0.04,-272.73,-272.74,-51,556,-942,23.9,1.7,-30.2,23.8,1.8,-29.7,5.73,2.44,-28.6,27.0
2012-01-23 01:46:00,0.0,1.9160,0.0010,403.94,0.22,9.8,17.9,138.12,28.77,24.61,36.33,0.04,-272.74,-272.74,-51,555,-942,23.9,1.7,-30.1,23.8,1.8,-29.7,5.73,2.46,-28.6,26.9
2012-01-23 01:47:00,0.0,1.9158,0.0007,403.80,0.25,12.9,19.3,138.12,28.76,24.61,36.33,0.04,-272.73,-272.74,-51,556,-942,23.9,1.7,-30.0,23.8,1.8,-29.7,5.73,2.46,-28.7,26.9
2012-01-23 01:48:00,0.0,1.9160,0.0009,403.77,0.25,5.7,14.6,138.12,28.75,24.61,36.33,0.04,-272.74,-272.74,-51,555,-943,23.9,1.7,-30.0,23.8,1.8,-29.7,5.73,2.45,-28.7,26.9
2012-01-23 01:49:00,0.0,1.9179,0.0010,404.06,0.20,6.7,15.0,138.12,28.75,24.61,36.33,0.04,-272.73,-272.73,-51,556,-942,23.8,1.7,-30.0,23.8,1.8,-29.7,5.73,2.43,-28.8,26.8
2012-01-23 01:50:00,0.0,1.9174,0.0009,404.04,0.22,5.6,12.0,138.12,28.74,24.61,36.33,0.04,-272.74,-272.74,-51,556,-942,23.9,1.7,-30.1,23.8,1.8,-29.8,5.73,2.40,-28.8,26.7
2012-01-23 01:51:00,0.0,1.9173,0.0010,403.94,0.23,4.9,12.9,138.13,28.72,24.61,36.33,0.04,-272.74,-272.74,-51,556,-942,23.8,1.7,-30.2,23.7,1.7,-29.9,5.73,2.38,-28.8,26.7
2012-01-23 01:52:00,0.0,1.9165,0.0008,403.80,0.23,4.9,13.6,138.13,28.71,24.61,36.33,0.04,-272.73,-272.74,-51,555,-942,23.8,1.7,-30.3,23.7,1.7,-30.0,5.73,2.36,-28.9,26.6
2012-01-23 01:53:00,0.0,1.9173,0.0008,403.76,0.20,2.2,10.0,138.13,28.70,24.61,36.33,0.04,-272.74,-272.74,-52,555,-942,23.8,1.7,-30.2,23.7,1.7,-29.9,5.73,2.37,-28.9,26.7
2012-01-23 01:54:00,0.0,1.9179,0.0009,403.96,0.19,2.7,10.0,138.13,28.69,24.61,36.33,0.04,-272.74,-272.74,-51,555,-942,23.8,1.7,-30.4,23.7,1.7,-30.0,5.73,2.38,-28.9,26.6
2012-01-23 01:55:00,0.0,1.9176,0.0010,403.84,0.24,1.7,8.5,138.13,28.68,24.61,36.32,0.04,-272.74,-272.74,-51,555,-942,23.8,1.6,-30.4,23.7,1.7,-30.1,5.73,2.40,-28.9,26.5
2012-01-23 01:56:00,0.0,1.9167,0.0008,403.72,0.22,3.5,10.5,138.13,28.67,24.61,36.33,0.04,-272.74,-272.74,-51,555,-942,23.7,1.6,-30.4,23.7,1.7,-30.1,5.73,2.43,-29.0,26.5
2012-01-23 01:57:00,0.0,1.9163,0.0010,403.60,0.25,1.0,7.1,138.13,28.66,24.61,36.33,0.04,-272.74,-272.74,-51,555,-942,23.7,1.7,-30.4,23.6,1.7,-30.0,5.73,2.45,-29.0,26.4
2012-01-23 01:58:00,0.0,1.9162,0.0011,403.63,0.20,0.4,5.4,138.13,28.65,24.60,36.32,0.04,-272.74,-272.73,-51,555,-941,23.7,1.7,-30.4,23.6,1.7,-30.0,5.73,2.46,-29.0,26.4
2012-01-23 01:59:00,0.0,1.9167,0.0010,403.63,0.20,-0.4,3.5,138.13,28.63,24.61,36.33,0.04,-272.74,-272.73,-52,555,-942,23.7,1.7,-30.4,23.6,1.7,-30.0,5.73,2.46,-29.0,26.5
2012-01-23 02:00:00,0.0,1.9160,0.0009,403.57,0.23,0.2,4.1,138.14,28.62,24.60,36.32,0.04,-272.74,-272.74,-52,555,-941,23.6,1.7,-30.4,23.6,1.7,-30.0,5.73,2.44,-29.1,26.5
2012-01-23 02:01:00,0.0,1.9154,0.0011,403.49,0.29,-0.3,2.4,138.14,28.61,24.61,36.32,0.04,-272.73,-272.74,-52,554,-941,23.6,1.7,-30.4,23.6,1.7,-30.1,5.73,2.41,-29.1,26.4
2012-01-23 02:02:00,0.0,1.9146,0.0009,403.27,0.24,0.3,6.1,138.14,28.60,24.61,36.32,0.04,-272.73,-272.74,-51,554,-941,23.6,1.7,-30.2,23.6,1.7,-29.9,5.73,2.39,-29.1,26.3
2012-01-23 02:03:00,0.0,1.9148,0.0010,403.32,0.19,-0.4,3.8,138.14,28.58,24.61,36.32,0.04,-272.74,-272.74,-51,554,-941,23.6,1.7,-30.1,23.5,1.8,-29.9,5.73,2.36,-29.1,26.4
2012-01-23 02:04:00,0.0,1.9125,0.0013,402.85,0.26,-0.3,3.7,138.14,28.57,24.60,36.32,0.04,-272.74,-272.74,-52,554,-941,23.6,1.7,-30.0,23.5,1.8,-29.7,5.73,2.35,-29.2,26.4
2012-01-23 02:05:00,0.0,1.9125,0.0009,402.89,0.21,-0.5,2.6,138.14,28.56,24.61,36.32,0.04,-272.74,-272.74,-52,554,-941,23.6,1.8,-29.7,23.5,1.8,-29.4,5.73,2.37,-29.2,26.4
2012-01-23 02:06:00,0.0,1.9148,0.0010,403.38,0.25,1.1,7.2,138.14,28.55,24.60,36.32,0.04,-272.73,-272.74,-51,554,-941,23.5,1.8,-29.9,23.5,1.8,-29.5,5.73,2.44,-29.2,27.0
2012-01-23 02:07:00,0.0,1.9146,0.0017,403.24,0.36,2.0,10.7,138.13,28.55,24.60,36.33,0.04,-272.74,-272.74,-52,554,-941,23.6,1.8,-29.9,23.5,1.8,-29.6,5.73,2.48,-29.0,27.3
2012-01-23 02:08:00,0.0,1.9144,0.0019,403.43,0.44,6.3,16.0,138.12,28.56,24.60,36.33,0.04,-272.74,-272.74,-52,554,-941,23.6,1.8,-29.8,23.6,1.8,-29.4,5.73,2.42,-28.9,27.6
2012-01-23 02:09:00,0.0,1.9158,0.0009,403.75,0.26,8.0,15.0,138.11,28.57,24.61,36.33,0.04,-272.74,-272.73,-52,554,-940,23.6,1.7,-29.9,23.6,1.8,-29.6,5.73,2.30,-28.8,27.8
2012-01-23 02:10:00,0.0,1.9145,0.0011,403.61,0.20,11.8,19.3,138.11,28.59,24.61,36.33,0.04,-272.74,-272.74,-51,554,-940,23.7,1.7,-30.0,23.7,1.8,-29.6,5.73,2.41,-28.7,27.9
2012-01-23 02:11:00,0.0,1.9137,0.0008,403.43,0.19,17.6,23.2,138.10,28.61,24.61,36.34,0.04,-272.74,-272.74,-51,554,-940,23.7,1.7,-29.9,23.7,1.8,-29.5,5.73,2.51,-28.6,28.1
2012-01-23 02:12:00,0.0,1.9142,0.0008,403.49,0.22,21.2,23.5,138.10,28.63,24.61,36.33,0.04,-272.73,-272.73,-52,553,-940,23.8,1.7,-29.9,23.7,1.8,-29.4,5.73,2.31,-28.5,28.2
2012-01-23 02:13:00,0.0,1.9160,0.0012,403.68,0.24,31.7,28.4,138.09,28.66,24.61,36.34,0.04,-272.74,-272.74,-51,554,-940,23.8,1.7,-29.9,23.8,1.8,-29.5,5.73,2.41,-28.4,28.4
2012-01-23 02:14:00,0.0,1.9176,0.0015,403.81,0.28,33.5,29.7,138.09,28.69,24.61,36.34,0.04,-272.74,-272.74,-51,554,-940,23.8,1.7,-30.2,23.8,1.8,-29.7,5.73,2.50,-28.4,28.4
2012-01-23 02:15:00,0.0,1.9148,0.0010,403.41,0.29,34.6,27.8,138.09,28.71,24.61,36.34,0.04,-272.74,-272.73,-51,554,-941,23.9,1.7,-30.0,23.8,1.8,-29.6,5.73,2.35,-28.3,27.9
2012-01-23 02:16:00,0.0,1.9146,0.0010,403.38,0.29,28.5,25.4,138.09,28.73,24.61,36.34,0.04,-272.73,-272.74,-51,554,-941,23.9,1.7,-29.8,23.9,1.8,-29.4,5.73,2.38,-28.3,27.6
2012-01-23 02:17:00,0.0,1.9142,0.0015,403.30,0.32,20.8,24.5,138.10,28.75,24.61,36.33,0.04,-272.74,-272.74,-52,554,-941,23.9,1.8,-29.7,23.8,1.8,-29.2,5.73,2.41,-28.4,27.4
2012-01-23 02:18:00,0.0,1.9136,0.0009,403.20,0.22,16.6,19.4,138.10,28.76,24.61,36.33,0.04,-272.73,-272.74,-52,554,-941,23.9,1.8,-29.4,23.8,1.9,-29.1,5.73,2.44,-28.5,27.2